Regional Weather Roundup
Issued by NWS Cleveland, OH

Home | Current Version | Previous Version | Text Only | Print | Product List | Glossary Off
Versions: 1 2 3 4 5 6 7 8 9 10 11 12 13 14 15 16 17 18 19 20 21 22 23 24 25 26 27 28 29 30 31 32 33 34 35 36 37 38 39 40 41 42 43 44 45 46 47 48 49 50

000
ASUS41 KCLE 152202
RWRCLE
OHIO REGIONAL WEATHER ROUNDUP
NATIONAL WEATHER SERVICE CLEVELAND, OH
600 PM EDT MON SEP 15 2014

NOTE: "FAIR" INDICATES FEW OR NO CLOUDS BELOW 12,000 FEET WITH NO
SIGNIFICANT WEATHER AND/OR OBSTRUCTIONS TO VISIBILITY.

OHZ001>008-015>018-024>027-034-035-043-044-152300-
   NORTHWEST OHIO

CITY           SKY/WX    TMP DP  RH WIND       PRES   REMARKS
DEFIANCE       LGT RAIN  59  51  75 W5        30.08F
FINDLAY        CLOUDY    60  54  80 NW5       30.06S
TOLEDO EXPRESS CLOUDY    59  52  77 CALM      30.07S
TOLEDO EXEC    CLOUDY    62  51  67 W5        30.08S
LIMA           CLOUDY    60  57  89 N5        30.07S FOG
$$

OHZ009>014-019>023-028>033-038-089-152300-
   NORTHEAST OHIO

CITY           SKY/WX    TMP DP  RH WIND       PRES   REMARKS
CLE-HOPKINS    LGT RAIN  59  53  80 CALM      30.09F
CLE-LAKEFRONT  LGT RAIN  61  52  72 W6        30.05F
CUY CO. ARPT   LGT RAIN  61  55  82 W7        30.09F
LORAIN-ELYRIA  CLOUDY    63  54  72 CALM      30.09F
ASHTABULA      CLOUDY    62  53  72 CALM      30.10F
AKRON-CANTON   CLOUDY    66  49  54 SW7       30.08F
WOOSTER        CLOUDY    65  52  62 S8        30.07F
MANSFIELD      LGT RAIN  63  52  67 VRB6      30.07F
YOUNGSTOWN     CLOUDY    64  50  60 CALM      30.10F
$$

OHZ042-051>053-060>062-070>072-077>081-152300-
  SOUTHWEST OHIO

CITY           SKY/WX    TMP DP  RH WIND       PRES   REMARKS
CINC-COVINGTON LGT RAIN  62  55  77 S7G20     30.07F
CINC-LUNKEN    LGT RAIN  64  56  75 S6        30.10F
HAMILTON       RAIN      62  58  86 SE9       30.05F FOG
DAYTON         CLOUDY    62  55  77 VRB6      30.04F
WRIGHT-PAT AFB DRIZZLE   62  55  78 S7G21     30.03F
DAYTON GENERAL LGT RAIN  61  55  81 S15       30.05F
WILMINGTON     CLOUDY    67  52  58 SW7       30.11F
$$

OHZ036-037-039>041-045>050-054>059-063>069-073>076-082>088-152300-
  CENTRAL AND SOUTHEAST OHIO

CITY           SKY/WX    TMP DP  RH WIND       PRES   REMARKS
COLUMBUS       CLOUDY    72  45  37 SW10      30.08F
OSU AIRPORT    CLOUDY    68  49  50 S12       30.07F
BOLTON FIELD   CLOUDY    66  54  63 SW8       30.09F
RICKENBACK AFB CLOUDY    69  49  49 SW6       30.08S
NEWARK         PTSUNNY   67  49  52 SW6       30.08F
MARION         CLOUDY    63  54  72 S5        30.04F
LANCASTER      CLOUDY    70  48  45 SW7       30.09F
ZANESVILLE     PTSUNNY   68  51  54 SW5       30.09F
NEW PHILLY     CLOUDY    66  53  63 SW3       30.10F
$$



USA.gov is the U.S. government's official web portal to all federal, state and local government web resources and services.